[[{"header":{"parameterUnit":"m.s-1","parameterCategory":1,"la1":30.2991,"la2":30.254,"lo1":-89.0895,"lo2":-89.0444,"dy":0.0017,"dx":0.0017,"nx":28,"ny":28,"refTime":"2025-04-11T09:00:00:Z","depth":0,"parameterNumber":2,"parameterNumberName":"U-component_of_WINDS"},"data":[0,0,0,0,0,0,0,0,0,0,0,0,0,0,0,0,0,0,0,0,0,0,0,0,0,0,0,0,0,0,0,0,0,0,0,0,0,0,0,0,0,0,0,0,0,0,0,0,0,0,0,0,0,0,0,0,0,0,-0.0593,-0.0594,0,-0.0682,-0.0683,-0.0684,-0.0675,-0.0674,-0.0672,-0.0671,-0.0766,-0.0769,-0.0773,0,0,0,0,0,0,0,0,0,0,0,0,0,-0.0419,-0.0423,-0.0593,-0.0594,-0.0596,-0.0682,-0.0683,-0.0684,-0.0675,-0.0674,-0.0672,-0.067,-0.0764,-0.0769,-0.0773,0,0,0,0,0,0,0,0,0,0,0,0,0,-0.05,-0.0424,-0.0593,-0.0601,-0.0603,-0.0682,-0.0683,-0.0685,-0.0676,-0.0674,-0.0671,-0.0669,-0.0763,-0.0768,-0.0774,-0.0852,0,0,-0.0792,-0.0794,0,0,0,0,0,0,0,0,-0.0496,-0.0507,-0.0599,-0.0601,-0.0603,-0.0665,-0.0656,-0.0741,-0.0676,-0.0648,-0.0671,-0.0668,-0.0734,-0.0742,-0.0764,-0.0856,-0.086,-0.0792,-0.0796,-0.0798,-0.08,0,0,0,0,0,0,0,-0.049,-0.0503,-0.0629,-0.06,-0.0603,-0.0602,-0.0611,-0.0672,-0.0702,-0.065,-0.065,-0.066,-0.0735,-0.0758,-0.0766,-0.0861,-0.0792,-0.0797,-0.0801,-0.0803,-0.1023,-0.1025,0,0,0,0,0,0,-0.0482,-0.0498,-0.0626,-0.0631,-0.0543,-0.0606,-0.0617,-0.0647,-0.0701,-0.0707,-0.0662,-0.066,-0.0749,-0.0759,-0.0769,-0.0865,-0.0798,-0.0803,-0.0807,-0.102,-0.1023,-0.1026,0,0,0,0,0,0,-0.0478,-0.0493,-0.0622,-0.0565,-0.0581,-0.0612,-0.0646,-0.065,-0.0673,-0.071,-0.0716,-0.068,-0.0748,-0.0761,-0.0831,-0.0868,-0.0806,-0.0811,-0.1017,-0.1021,-0.1024,-0.1055,0,0,0,0,0,0,-0.0473,-0.0492,-0.0521,-0.0565,-0.0584,-0.0682,-0.0648,-0.0654,-0.0683,-0.0681,-0.0729,-0.0734,-0.0747,-0.0822,-0.0837,-0.0874,-0.0816,-0.1014,-0.1019,-0.1023,-0.1051,-0.106,-0.1067,0,0,0,0,0,-0.0467,-0.0527,-0.0523,-0.0538,-0.0621,-0.0684,-0.0695,-0.0708,-0.0686,-0.0716,-0.0739,-0.0733,-0.086,-0.083,-0.0846,-0.0886,-0.1012,-0.1018,-0.1023,-0.1048,-0.1058,-0.1066,0,0,0,0,0,0,-0.0489,-0.0533,-0.0529,-0.0605,-0.064,-0.0682,-0.0721,-0.0718,-0.0761,-0.0758,-0.0772,-0.0783,-0.0854,-0.0876,-0.0841,-0.0964,-0.0934,-0.0942,-0.0947,-0.0957,-0.0964,-0.0959,-0.0821,0,0,0,0,0,-0.0502,-0.0548,-0.0585,-0.0649,-0.0666,-0.069,-0.0719,-0.0725,-0.0763,-0.0779,-0.0807,-0.0845,-0.0894,-0.0926,-0.0973,-0.1053,-0.1065,-0.1088,-0.1096,-0.1102,-0.1111,-0.1156,-0.1168,-0.1043,-0.1043,-0.1043,0,0,-0.0531,-0.056,-0.0589,-0.0654,-0.0682,-0.0731,-0.0704,-0.0757,-0.0794,-0.0787,-0.0855,-0.0877,-0.0921,-0.0997,-0.1031,-0.1018,-0.1147,-0.1109,-0.1114,-0.1119,-0.1163,-0.1175,-0.1185,-0.1047,-0.1046,-0.1046,0,0,-0.0608,-0.0635,-0.0691,-0.072,-0.0762,-0.0778,-0.0791,-0.0833,-0.0847,-0.0915,-0.0911,-0.0956,-0.1039,-0.1071,-0.1098,-0.1185,-0.1182,-0.12,-0.1242,-0.1285,-0.1295,-0.1304,-0.1338,-0.1349,-0.1208,-0.1208,-0.1208,0,-0.0639,-0.0712,-0.0721,-0.0774,-0.0803,-0.0797,-0.0855,-0.0883,-0.0939,-0.096,-0.0943,-0.1047,-0.1076,-0.116,-0.1181,-0.1202,-0.1219,-0.1196,-0.1293,-0.1302,-0.131,-0.1342,-0.1355,-0.121,-0.121,-0.1209,-0.1209,0,-0.0749,-0.0799,-0.084,-0.0893,-0.0926,-0.0981,-0.1,-0.1032,-0.1035,-0.1052,-0.1122,-0.1155,-0.121,-0.1229,-0.1233,-0.1313,-0.1304,-0.1289,-0.126,-0.1324,-0.1355,-0.1367,-0.1213,-0.1212,-0.1211,-0.1211,0,0,-0.0846,-0.0902,-0.0917,-0.0941,-0.0987,-0.1027,-0.1081,-0.1133,-0.1161,-0.1199,-0.1248,-0.1317,-0.1304,-0.1335,-0.1341,-0.1379,-0.1449,-0.1361,-0.1362,-0.1378,-0.1542,-0.1554,-0.1568,-0.1445,-0.1447,-0.1449,-0.1539,0,-0.093,-0.1027,-0.1036,-0.1123,-0.1171,-0.1165,-0.1213,-0.1247,-0.1264,-0.1307,-0.1326,-0.1376,-0.1354,-0.1372,-0.1409,-0.1432,-0.1482,-0.1426,-0.1492,-0.1494,-0.1484,-0.1584,-0.1598,-0.1681,-0.1551,-0.1553,-0.1554,0,-0.1043,-0.1083,-0.1175,-0.1214,-0.1234,-0.1277,-0.1325,-0.1366,-0.1404,-0.1414,-0.1447,-0.1448,-0.1506,-0.1471,-0.1552,-0.1513,-0.154,-0.1556,-0.1559,-0.1569,-0.153,-0.1599,-0.1708,-0.1721,-0.1573,-0.1571,-0.157,0,-0.1107,-0.1184,-0.125,-0.127,-0.1317,-0.1347,-0.1368,-0.1404,-0.1434,-0.1476,-0.1496,-0.1544,-0.1571,-0.1608,-0.1623,-0.1596,-0.1703,-0.167,-0.1715,-0.1715,-0.1741,-0.174,-0.1859,-0.1753,-0.1753,-0.1753,-0.1753,0,-0.1203,-0.126,-0.1279,-0.132,-0.1384,-0.1393,-0.1456,-0.1476,-0.1507,-0.1552,-0.1549,-0.1591,-0.1606,-0.1652,-0.1663,-0.1729,-0.1741,-0.1751,-0.1755,-0.1754,-0.1753,-0.1774,-0.177,-0.1756,-0.1755,-0.1755,-0.1754,0,-0.1288,-0.1302,-0.1374,-0.1411,-0.1421,-0.1467,-0.15,-0.1539,-0.1554,-0.1611,-0.1625,-0.165,-0.1702,-0.1719,-0.1783,-0.1791,-0.1869,-0.1865,-0.1856,-0.1858,-0.1903,-0.1899,-0.2042,-0.2062,-0.1941,-0.1942,-0.1943,0,-0.1349,-0.1393,-0.1434,-0.1463,-0.1485,-0.1532,-0.1562,-0.1572,-0.1604,-0.165,-0.1685,-0.1736,-0.1779,-0.1864,-0.1888,-0.1937,-0.1936,-0.1983,-0.1944,-0.1942,-0.194,-0.1939,-0.1944,-0.1992,-0.1993,-0.1994,-0.1995,0,-0.1457,-0.1462,-0.1505,-0.1551,-0.1587,-0.1624,-0.166,-0.1684,-0.1699,-0.1735,-0.1788,-0.1821,-0.1885,-0.1938,-0.1987,-0.201,-0.2006,-0.2006,-0.202,-0.2021,-0.2015,-0.2021,-0.1879,-0.2004,-0.2003,-0.2002,-0.2002,-0.2001,-0.1534,-0.1573,-0.1608,-0.1657,-0.1684,-0.1717,-0.1756,-0.1775,-0.1819,-0.1872,-0.1875,-0.1933,-0.1969,-0.2035,-0.206,-0.2106,-0.2093,-0.2112,-0.2118,-0.2123,-0.2128,-0.2004,-0.2115,-0.2115,-0.2115,-0.2114,-0.2114,0,-0.1645,-0.1666,-0.171,-0.176,-0.1798,-0.1787,-0.1826,-0.1859,-0.191,-0.1943,-0.1985,-0.2046,-0.2096,-0.2123,-0.2173,-0.2205,-0.2205,-0.2219,-0.2218,-0.2224,-0.2136,-0.212,-0.2218,-0.2218,-0.2218,-0.2218,-0.2218,-0.2218,-0.1707,-0.1773,-0.1781,-0.186,-0.1882,-0.1938,-0.1961,-0.1992,-0.2019,-0.2087,-0.2128,-0.2145,-0.2176,-0.2228,-0.2274,-0.2281,-0.2301,-0.2317,-0.2322,-0.224,-0.223,-0.222,-0.2205,-0.232,-0.232,-0.2407,-0.2408,-0.2408]},{"header":{"parameterUnit":"m.s-1","parameterCategory":1,"la1":30.2991,"la2":30.254,"lo1":-89.0895,"lo2":-89.0444,"dy":0.0017,"dx":0.0017,"nx":28,"ny":28,"refTime":"2025-04-11T09:00:00:Z","depth":0,"parameterNumber":3,"parameterNumberName":"V-component_of_WINDS"},"data":[0,0,0,0,0,0,0,0,0,0,0,0,0,0,0,0,0,0,0,0,0,0,0,0,0,0,0,0,0,0,0,0,0,0,0,0,0,0,0,0,0,0,0,0,0,0,0,0,0,0,0,0,0,0,0,0,0,0,-4.9816,-4.9818,0,-4.9965,-4.9967,-4.9969,-4.9905,-4.9901,-4.9898,-4.9894,-5.0045,-5.0052,-5.006,0,0,0,0,0,0,0,0,0,0,0,0,0,-4.9474,-4.9481,-4.9816,-4.9818,-4.982,-4.9965,-4.9967,-4.9969,-4.9906,-4.9901,-4.9897,-4.9893,-5.0043,-5.0051,-5.006,0,0,0,0,0,0,0,0,0,0,0,0,0,-4.9623,-4.9483,-4.9816,-4.9806,-4.9806,-4.9965,-4.9967,-4.997,-4.9907,-4.9901,-4.9896,-4.9891,-5.004,-5.0051,-5.0061,-5.0238,0,0,-5.0095,-5.01,0,0,0,0,0,0,0,0,-4.9614,-4.9635,-4.9805,-4.9807,-4.9808,-4.9911,-4.9902,-5.0059,-4.9908,-4.9869,-4.9894,-4.9888,-5.0005,-5.0018,-5.0058,-5.0245,-5.0251,-5.0096,-5.0103,-5.0108,-5.0111,0,0,0,0,0,0,0,-4.9604,-4.9629,-4.9875,-4.9808,-4.9809,-4.9793,-4.9808,-4.9931,-4.9965,-4.9872,-4.9867,-4.9886,-5.0004,-5.0048,-5.0061,-5.0253,-5.0096,-5.0106,-5.0113,-5.0117,-5.0591,-5.0597,0,0,0,0,0,0,-4.9594,-4.9621,-4.987,-4.9879,-4.9696,-4.9804,-4.982,-4.9883,-4.9964,-4.9971,-4.989,-4.9882,-5.0031,-5.0048,-5.0066,-5.0278,-5.0108,-5.0118,-5.0124,-5.0585,-5.0592,-5.0599,0,0,0,0,0,0,-4.9587,-4.9617,-4.9864,-4.9749,-4.9779,-4.9815,-4.9886,-4.9889,-4.9932,-4.9978,-4.9983,-4.9929,-5.0028,-5.0051,-5.0195,-5.0282,-5.0123,-5.0133,-5.0578,-5.0587,-5.0595,-5.0702,0,0,0,0,0,0,-4.9578,-4.9615,-4.9683,-4.9751,-4.9786,-4.9993,-4.9892,-4.9896,-4.9952,-4.9943,-5.0015,-5.0022,-5.0025,-5.0179,-5.0206,-5.0294,-5.0142,-5.057,-5.0582,-5.0593,-5.0691,-5.0714,-5.0733,0,0,0,0,0,-4.9566,-4.9707,-4.9687,-4.9717,-4.9872,-4.9998,-5.0017,-5.0019,-4.9959,-5.0027,-5.0056,-5.002,-5.0268,-5.0195,-5.0225,-5.0317,-5.0565,-5.0579,-5.0592,-5.0682,-5.0709,-5.0733,0,0,0,0,0,0,-4.9648,-4.9716,-4.9694,-4.9862,-4.9925,-4.9987,-5.0073,-5.0048,-5.0129,-5.0117,-5.0114,-5.0131,-5.0281,-5.0313,-5.0231,-5.0491,-5.0407,-5.0427,-5.0465,-5.0492,-5.0512,-5.0502,-5.0151,0,0,0,0,0,-4.9686,-4.9783,-4.9837,-4.998,-5.0012,-5.0037,-5.0092,-5.0088,-5.0152,-5.0178,-5.0218,-5.0281,-5.0373,-5.0434,-5.0521,-5.0695,-5.0709,-5.0773,-5.0794,-5.0811,-5.0829,-5.0922,-5.0951,-5.0643,-5.0643,-5.0642,0,0,-4.9765,-4.9814,-4.9876,-4.9997,-5.0045,-5.0145,-5.006,-5.017,-5.0244,-5.0195,-5.0334,-5.0365,-5.0435,-5.0595,-5.0668,-5.0627,-5.0917,-5.0828,-5.0841,-5.085,-5.0939,-5.0968,-5.0994,-5.0652,-5.065,-5.0649,0,0,-4.9961,-5.0008,-5.0132,-5.0181,-5.0255,-5.027,-5.03,-5.0366,-5.0385,-5.0525,-5.049,-5.0577,-5.0736,-5.0787,-5.0834,-5.1047,-5.1016,-5.1076,-5.1185,-5.1277,-5.1301,-5.1322,-5.1398,-5.1426,-5.1093,-5.1093,-5.1093,0,-5.005,-5.02,-5.0198,-5.0311,-5.0365,-5.0325,-5.045,-5.0498,-5.0597,-5.0635,-5.0587,-5.0785,-5.083,-5.1001,-5.1053,-5.1092,-5.1125,-5.1068,-5.1298,-5.1319,-5.1339,-5.1412,-5.144,-5.11,-5.1099,-5.1098,-5.1098,0,-5.0306,-5.041,-5.0501,-5.0598,-5.0662,-5.078,-5.0795,-5.086,-5.085,-5.087,-5.1012,-5.1064,-5.1161,-5.1201,-5.1192,-5.1371,-5.1343,-5.1297,-5.1212,-5.1375,-5.1443,-5.1471,-5.111,-5.1107,-5.1105,-5.1103,0,0,-5.0559,-5.0652,-5.0686,-5.0729,-5.0806,-5.0887,-5.1002,-5.1097,-5.1153,-5.1221,-5.1318,-5.1452,-5.141,-5.1463,-5.1459,-5.1539,-5.1704,-5.1483,-5.1484,-5.1523,-5.1904,-5.1939,-5.1971,-5.1683,-5.1689,-5.1693,-5.1898,0,-5.0761,-5.0965,-5.0966,-5.1154,-5.125,-5.1212,-5.1312,-5.137,-5.1392,-5.1476,-5.1498,-5.1594,-5.1531,-5.1563,-5.164,-5.1668,-5.1781,-5.1653,-5.1773,-5.1777,-5.1758,-5.2007,-5.2045,-5.2236,-5.1925,-5.1929,-5.1933,0,-5.1024,-5.1102,-5.1299,-5.1361,-5.1402,-5.1492,-5.1579,-5.166,-5.1724,-5.1733,-5.1793,-5.1776,-5.1892,-5.1803,-5.1963,-5.1876,-5.1925,-5.1946,-5.1953,-5.1965,-5.1866,-5.2026,-5.2297,-5.2326,-5.1974,-5.1971,-5.1968,0,-5.119,-5.1343,-5.1481,-5.1518,-5.1595,-5.1659,-5.1694,-5.1753,-5.1809,-5.1885,-5.1921,-5.2009,-5.2057,-5.2124,-5.2131,-5.2066,-5.2292,-5.2204,-5.2303,-5.2303,-5.2354,-5.2351,-5.2637,-5.2384,-5.2384,-5.2383,-5.2382,0,-5.1416,-5.1538,-5.1556,-5.1641,-5.1776,-5.1775,-5.1909,-5.1938,-5.199,-5.2079,-5.2051,-5.2135,-5.2139,-5.2224,-5.223,-5.2362,-5.2383,-5.2394,-5.2394,-5.2397,-5.2396,-5.243,-5.2417,-5.2391,-5.2389,-5.2387,-5.2386,0,-5.1625,-5.1642,-5.1789,-5.1849,-5.1867,-5.1964,-5.2015,-5.2095,-5.2113,-5.2226,-5.2252,-5.2281,-5.238,-5.2393,-5.2508,-5.2512,-5.267,-5.2656,-5.2649,-5.2647,-5.2746,-5.2737,-5.3065,-5.3108,-5.2826,-5.2829,-5.2831,0,-5.1768,-5.1862,-5.1931,-5.1989,-5.2027,-5.2121,-5.2178,-5.218,-5.2241,-5.232,-5.2391,-5.2487,-5.2565,-5.2724,-5.2755,-5.2843,-5.2831,-5.2939,-5.2844,-5.2844,-5.2833,-5.2828,-5.2837,-5.2958,-5.2961,-5.2964,-5.2966,0,-5.2022,-5.2025,-5.2109,-5.2197,-5.2267,-5.2336,-5.24,-5.2449,-5.2459,-5.2528,-5.263,-5.269,-5.2807,-5.2903,-5.299,-5.3024,-5.2997,-5.2996,-5.3023,-5.3028,-5.302,-5.3026,-5.2701,-5.2988,-5.2986,-5.2985,-5.2983,-5.2982,-5.2203,-5.2283,-5.2345,-5.244,-5.2488,-5.2549,-5.2627,-5.2655,-5.274,-5.2836,-5.2832,-5.2943,-5.3003,-5.3117,-5.3157,-5.3243,-5.3207,-5.3248,-5.3258,-5.3268,-5.3278,-5.3006,-5.3259,-5.3258,-5.3258,-5.3257,-5.3257,0,-5.2455,-5.2492,-5.2579,-5.267,-5.2745,-5.2712,-5.2782,-5.2846,-5.2945,-5.3003,-5.308,-5.3195,-5.3288,-5.3325,-5.3415,-5.3477,-5.3466,-5.35,-5.3496,-5.3504,-5.3305,-5.3272,-5.3507,-5.3507,-5.3507,-5.3507,-5.3507,-5.3507,-5.2595,-5.273,-5.274,-5.2898,-5.2934,-5.3044,-5.3086,-5.3142,-5.3188,-5.3319,-5.3396,-5.3419,-5.3469,-5.3562,-5.3645,-5.3653,-5.3688,-5.3728,-5.3731,-5.3544,-5.3519,-5.3494,-5.3464,-5.3735,-5.3735,-5.3923,-5.3925,-5.3926]}]]